Retour au catalogue

BREEZE-M R/B

ActifMEO
NORAD 39729·ROCKET BODY·🇷🇺 Russia

Lancé Apr 28, 2014 depuis Baikonur Cosmodrome

Loading…

Prochains Passages (prochaines 24 heures)

TLE

VieillissantSource: Space-Track

Époque: Sep 1, 2026, 11:41 UTC

1 39729U 14023C   26244.48729835 -.00000112  00000-0  00000-0 0  9999
2 39729  10.3046  52.6218 0643946 202.3543 154.8529  0.92543694 41686

Suivez BREEZE-M R/B en temps réel avec AllMySat

Download on the App Store